RH
18 18 19 21 22 23 23 22 21 21 21 22 26 24 23 20 20 20 20 21 23 23 23 23 23 24 24 23 23 23 23 23 23 21 18 18 19 25 30 19 33 26 27
19 20 20 22 23 24 25 27 22 20 22 26 27 27 24 23 21 22 23 25 25 25 25 25 26 26 26 26 25 24 24 24 24 23 22 23 22 29 21 27 24 28 32
19 21 21 23 25 26 28 25 20 20 22 26 24 25 23 23 24 25 26 27 27 27 28 28 28 28 28 28 27 26 25 24 23 24 24 27 25 23 24 22 24 26 28
20 22 22 24 26 29 28 23 20 20 21 23 24 25 26 27 27 29 29 29 29 29 30 31 31 30 30 28 26 26 24 23 23 23 23 23 24 26 24 22 23 25 26
20 22 22 26 29 30 24 21 21 22 22 24 26 27 28 28 30 31 31 31 31 32 33 33 32 31 29 28 26 25 24 23 24 24 23 22 23 24 25 24 24 24 22
20 23 25 29 30 28 24 24 24 24 25 26 28 29 30 31 32 33 34 33 34 35 34 33 33 32 30 27 25 23 21 20 21 22 22 22 24 25 26 26 27 26 24
22 25 27 29 30 27 27 28 27 27 27 28 30 31 33 34 35 35 36 37 39 39 38 38 36 32 28 26 23 21 20 20 22 22 22 22 23 25 27 28 28 29 29
25 26 27 29 31 29 31 32 30 29 30 31 33 34 35 36 37 38 41 43 43 42 42 38 33 29 26 24 23 21 20 21 21 22 23 25 28 29 30 32 33 32 32
25 27 29 31 33 34 35 34 33 32 33 33 35 36 38 40 42 44 46 46 45 44 40 35 31 29 27 26 25 24 23 23 23 24 24 25 29 33 34 37 39 39 37
28 31 33 35 36 38 38 38 37 35 35 36 38 40 43 46 48 50 49 47 45 43 38 34 31 30 29 28 28 27 26 25 24 24 25 25 25 27 29 31 31 34 36
30 35 37 38 39 41 42 40 39 38 39 41 44 47 49 51 52 50 47 47 46 40 36 34 33 32 30 28 28 26 25 25 26 27 27 27 26 26 26 27 29 30 33
35 38 39 40 43 44 44 42 42 43 45 48 49 50 52 53 50 49 49 48 42 38 36 34 33 30 29 28 27 25 25 26 26 27 27 27 28 27 27 30 32 35 37
38 40 42 43 45 45 45 45 46 48 50 51 51 53 52 50 50 51 50 44 40 38 34 31 29 28 27 26 24 25 26 27 28 28 28 27 30 31 34 37 39 40 47
39 42 44 45 45 46 46 48 50 51 52 53 53 52 52 52 52 50 45 42 38 33 30 28 28 27 26 25 27 27 28 27 27 27 29 31 35 40 43 46 46 48 52
40 42 44 45 46 47 47 48 51 53 54 53 53 54 54 54 51 46 43 37 33 30 28 27 26 27 27 27 27 27 27 28 27 28 30 32 35 41 45 54 54 62 66
41 43 44 46 47 47 48 52 54 55 55 55 56 56 55 51 46 42 37 33 30 29 28 28 28 27 27 27 29 30 29 30 30 30 38 44 48 52 58 68 67 65 68
42 44 45 46 46 50 54 56 58 58 57 57 57 54 50 45 42 37 32 31 30 29 28 27 27 27 27 29 30 33 34 33 38 47 49 51 58 61 61 55 65 66 71
43 45 46 49 53 56 59 61 59 58 57 55 53 49 46 42 36 33 31 31 31 29 28 27 28 28 28 30 34 37 38 42 50 55 61 63 64 61 62 65 70 74 69
45 48 52 55 59 62 61 60 59 58 55 53 49 46 41 36 34 32 32 31 30 28 28 28 29 31 31 35 40 43 47 55 57 63 69 71 69 69 71 75 75 70 68
50 57 61 63 63 62 60 59 56 54 50 48 46 41 37 34 33 33 31 30 29 29 29 31 33 35 37 42 47 58 62 60 62 67 72 76 79 75 81 84 80 78 73
61 62 61 63 62 62 59 55 51 48 47 45 41 37 34 33 33 32 30 30 31 31 32 35 37 41 45 48 59 66 69 71 71 76 81 83 79 81 82 80 81 79 77
62 64 64 63 61 57 52 49 47 47 44 40 36 35 34 34 32 31 31 32 33 34 36 39 41 46 52 60 63 68 73 77 79 80 82 81 79 83 90 89 84 77 78
63 63 61 57 53 50 48 47 46 42 39 37 36 37 34 32 31 32 33 34 36 39 42 45 47 52 59 60 65 70 76 81 82 82 81 82 76 80 87 87 82 79 78
62 58 53 52 52 50 47 43 40 39 38 38 37 34 32 32 34 34 35 38 43 46 49 50 52 57 60 63 66 71 76 79 76 75 78 79 81 89 85 81 74 77 80
54 55 55 51 48 44 40 40 40 39 38 36 34 33 33 34 34 36 40 45 50 55 54 55 59 60 62 67 73 76 78 76 73 72 74 79 84 87 88 87 82 83 82
57 52 49 45 42 41 41 40 39 36 34 33 34 34 34 36 38 41 45 52 57 57 60 64 66 68 70 72 77 79 78 75 76 80 82 82 86 91 94 91 85 84 81